Location: Góry Miechowskie
(50.3599°N, 20.1803°E)
Time: 08:09:19
(UTC+00:00)

A-11 Canister half - Pass Details

Date: 20 September 2024
Orbit: 1524 x 1683 km, 47.3° (Epoch: 12 October)

Event Time Altitude Azimuth Distance (km) Brightness Sun altitude
Rises 17:07:39 0° 288° (WNW) 4,792 13.8 -5.1°
Reaches altitude 10° 17:10:58 10° 281° (W) 3,828 13.0 -5.6°
Maximum altitude 17:19:42 39° 217° (SW) 2,304 10.2 -7.0°
Drops below altitude 10° 17:28:38 10° 154° (SSE) 3,917 10.8 -8.4°
Sets 17:32:06 0° 147° (SSE) 4,914 11.2 -8.9°
